QPF
0.00 0.01 0.00 0.00 0.00 0.00 0.01 0.02 0.03 0.03 0.05 0.06 0.05 0.06 0.06 0.05 0.05 0.04 0.03 0.03 0.04 0.05 0.07 0.07 0.10 0.08 0.09 0.08 0.07 0.09 0.12 0.10 0.09 0.10 0.12 0.09 0.08 0.11 0.13 0.12 0.12 0.13 0.10
0.00 0.00 0.00 0.00 0.00 0.00 0.01 0.02 0.03 0.03 0.04 0.05 0.05 0.05 0.05 0.05 0.05 0.06 0.04 0.02 0.02 0.03 0.05 0.08 0.10 0.09 0.09 0.07 0.07 0.09 0.13 0.11 0.10 0.11 0.16 0.16 0.18 0.17 0.12 0.11 0.12 0.13 0.12
0.00 0.00 0.00 0.00 0.00 0.00 0.01 0.02 0.03 0.03 0.04 0.04 0.05 0.05 0.05 0.07 0.07 0.05 0.04 0.02 0.01 0.02 0.04 0.06 0.07 0.07 0.07 0.08 0.07 0.08 0.13 0.12 0.10 0.09 0.12 0.17 0.22 0.22 0.17 0.13 0.14 0.13 0.10
0.00 0.00 0.00 0.00 0.00 0.00 0.01 0.02 0.02 0.02 0.03 0.03 0.05 0.05 0.07 0.08 0.08 0.05 0.05 0.04 0.02 0.02 0.03 0.04 0.05 0.07 0.08 0.07 0.06 0.08 0.11 0.12 0.13 0.13 0.12 0.12 0.15 0.18 0.21 0.19 0.20 0.16 0.12
0.00 0.00 0.00 0.00 0.00 0.00 0.01 0.02 0.02 0.02 0.03 0.04 0.05 0.06 0.06 0.06 0.06 0.05 0.06 0.05 0.03 0.02 0.02 0.04 0.05 0.08 0.08 0.09 0.10 0.12 0.14 0.13 0.15 0.15 0.14 0.13 0.15 0.16 0.20 0.23 0.22 0.18 0.14
0.00 0.00 0.00 0.00 0.00 0.00 0.00 0.01 0.02 0.02 0.03 0.04 0.04 0.04 0.04 0.05 0.06 0.06 0.06 0.05 0.03 0.03 0.03 0.03 0.05 0.06 0.08 0.09 0.10 0.12 0.15 0.14 0.16 0.15 0.14 0.14 0.16 0.19 0.20 0.22 0.21 0.19 0.14
0.00 0.00 0.00 0.00 0.00 0.00 0.00 0.01 0.02 0.02 0.03 0.03 0.03 0.02 0.03 0.04 0.04 0.04 0.05 0.04 0.03 0.03 0.03 0.03 0.05 0.06 0.06 0.07 0.08 0.11 0.14 0.13 0.14 0.14 0.12 0.11 0.11 0.14 0.17 0.21 0.19 0.17 0.13
0.00 0.00 0.00 0.00 0.00 0.00 0.00 0.01 0.01 0.01 0.01 0.02 0.02 0.02 0.02 0.03 0.03 0.03 0.03 0.03 0.02 0.03 0.03 0.04 0.04 0.03 0.03 0.04 0.07 0.08 0.09 0.10 0.11 0.10 0.10 0.11 0.09 0.10 0.13 0.15 0.16 0.15 0.11
0.00 0.00 0.00 0.00 0.00 0.00 0.00 0.00 0.00 0.01 0.01 0.01 0.02 0.01 0.01 0.02 0.03 0.03 0.03 0.02 0.02 0.02 0.02 0.02 0.02 0.01 0.01 0.02 0.05 0.05 0.05 0.05 0.06 0.06 0.07 0.07 0.07 0.07 0.06 0.07 0.09 0.12 0.12
0.00 0.00 0.00 0.00 0.00 0.00 0.00 0.00 0.01 0.01 0.01 0.01 0.02 0.01 0.01 0.01 0.02 0.03 0.02 0.03 0.03 0.03 0.03 0.02 0.01 0.01 0.01 0.02 0.03 0.02 0.03 0.03 0.03 0.04 0.05 0.07 0.06 0.07 0.05 0.05 0.06 0.09 0.10
0.00 0.00 0.00 0.00 0.00 0.00 0.00 0.00 0.01 0.01 0.01 0.01 0.01 0.02 0.01 0.01 0.01 0.02 0.02 0.03 0.03 0.02 0.02 0.02 0.02 0.03 0.03 0.04 0.03 0.02 0.03 0.03 0.04 0.03 0.04 0.05 0.05 0.06 0.06 0.06 0.06 0.07 0.09
0.00 0.00 0.00 0.00 0.00 0.00 0.00 0.00 0.00 0.01 0.01 0.01 0.02 0.02 0.02 0.02 0.01 0.02 0.02 0.03 0.02 0.02 0.02 0.01 0.02 0.03 0.03 0.03 0.02 0.01 0.02 0.03 0.03 0.03 0.03 0.04 0.05 0.06 0.06 0.06 0.07 0.06 0.06
0.00 0.00 0.00 0.00 0.00 0.00 0.00 0.00 0.00 0.01 0.01 0.01 0.01 0.03 0.02 0.02 0.02 0.03 0.03 0.02 0.02 0.02 0.02 0.02 0.02 0.02 0.02 0.01 0.01 0.01 0.01 0.02 0.02 0.03 0.04 0.03 0.04 0.05 0.06 0.06 0.07 0.06 0.05
0.00 0.00 0.00 0.00 0.00 0.00 0.00 0.00 0.00 0.01 0.01 0.01 0.01 0.01 0.01 0.01 0.01 0.02 0.02 0.01 0.02 0.02 0.01 0.02 0.02 0.02 0.02 0.02 0.02 0.02 0.02 0.03 0.04 0.05 0.05 0.03 0.04 0.05 0.06 0.06 0.07 0.06 0.06
0.00 0.00 0.00 0.00 0.00 0.00 0.00 0.00 0.00 0.01 0.01 0.00 0.01 0.01 0.01 0.01 0.01 0.01 0.01 0.01 0.01 0.01 0.02 0.02 0.02 0.03 0.03 0.03 0.03 0.02 0.03 0.04 0.03 0.04 0.04 0.03 0.04 0.05 0.06 0.04 0.04 0.04 0.04
0.00 0.00 0.00 0.00 0.00 0.00 0.00 0.00 0.00 0.01 0.01 0.01 0.01 0.00 0.01 0.01 0.00 0.00 0.00 0.01 0.01 0.02 0.03 0.03 0.05 0.05 0.05 0.05 0.05 0.03 0.02 0.03 0.03 0.03 0.03 0.03 0.03 0.03 0.03 0.03 0.02 0.02 0.02
0.00 0.00 0.00 0.00 0.01 0.00 0.00 0.00 0.00 0.00 0.00 0.01 0.01 0.00 0.01 0.00 0.00 0.00 0.01 0.02 0.02 0.03 0.03 0.04 0.04 0.05 0.06 0.06 0.05 0.03 0.02 0.03 0.04 0.03 0.03 0.03 0.03 0.03 0.02 0.02 0.01 0.01 0.01
0.00 0.00 0.00 0.00 0.00 0.00 0.00 0.00 0.00 0.00 0.00 0.01 0.01 0.01 0.01 0.00 0.00 0.00 0.01 0.02 0.03 0.04 0.03 0.03 0.03 0.04 0.04 0.04 0.03 0.02 0.02 0.03 0.04 0.04 0.05 0.05 0.05 0.04 0.04 0.04 0.03 0.02 0.01
0.01 0.00 0.00 0.00 0.01 0.01 0.00 0.00 0.00 0.00 0.01 0.01 0.01 0.01 0.01 0.01 0.01 0.01 0.02 0.02 0.03 0.03 0.03 0.02 0.02 0.03 0.03 0.03 0.02 0.02 0.02 0.02 0.03 0.03 0.04 0.05 0.05 0.04 0.04 0.05 0.04 0.04 0.03
0.00 0.00 0.00 0.00 0.01 0.01 0.01 0.00 0.00 0.00 0.01 0.01 0.02 0.02 0.02 0.02 0.01 0.01 0.02 0.02 0.02 0.02 0.02 0.02 0.01 0.01 0.02 0.02 0.01 0.02 0.02 0.03 0.02 0.03 0.03 0.05 0.05 0.04 0.03 0.03 0.03 0.03 0.03
0.00 0.01 0.00 0.01 0.01 0.01 0.01 0.00 0.01 0.01 0.00 0.01 0.01 0.01 0.01 0.02 0.03 0.03 0.03 0.03 0.02 0.02 0.01 0.01 0.01 0.01 0.02 0.01 0.01 0.01 0.01 0.02 0.03 0.03 0.03 0.03 0.05 0.04 0.03 0.03 0.02 0.02 0.02
0.00 0.00 0.01 0.01 0.01 0.00 0.01 0.01 0.02 0.01 0.01 0.01 0.01 0.02 0.02 0.02 0.02 0.02 0.02 0.02 0.01 0.02 0.02 0.01 0.01 0.01 0.01 0.01 0.01 0.01 0.01 0.01 0.02 0.03 0.03 0.03 0.04 0.04 0.04 0.04 0.04 0.03 0.03
0.00 0.00 0.01 0.01 0.02 0.01 0.01 0.01 0.02 0.02 0.02 0.02 0.02 0.02 0.02 0.02 0.02 0.02 0.01 0.01 0.01 0.01 0.01 0.01 0.01 0.00 0.01 0.00 0.01 0.01 0.01 0.01 0.02 0.02 0.03 0.04 0.04 0.03 0.03 0.02 0.02 0.02 0.02
0.00 0.00 0.01 0.01 0.02 0.02 0.02 0.01 0.01 0.01 0.01 0.01 0.02 0.02 0.03 0.03 0.03 0.02 0.02 0.02 0.01 0.01 0.02 0.02 0.01 0.01 0.01 0.00 0.01 0.01 0.01 0.02 0.02 0.02 0.03 0.03 0.02 0.02 0.02 0.02 0.01 0.01 0.01
0.01 0.01 0.01 0.01 0.03 0.04 0.03 0.02 0.01 0.01 0.01 0.01 0.01 0.02 0.02 0.03 0.02 0.02 0.03 0.03 0.03 0.02 0.03 0.02 0.01 0.01 0.01 0.02 0.01 0.01 0.01 0.02 0.03 0.02 0.02 0.03 0.03 0.03 0.02 0.01 0.01 0.01 0.02
0.01 0.02 0.01 0.01 0.02 0.04 0.06 0.05 0.02 0.01 0.01 0.01 0.01 0.01 0.01 0.02 0.02 0.02 0.02 0.03 0.03 0.04 0.04 0.03 0.02 0.02 0.02 0.02 0.01 0.02 0.03 0.05 0.04 0.03 0.02 0.02 0.03 0.03 0.03 0.02 0.03 0.03 0.03
MSLP
1002.22 1002.72 1003.20 1003.61 1003.95 1004.21 1004.43 1004.62 1004.83 1005.06 1005.31 1005.57 1005.83 1006.07 1006.28 1006.46 1006.65 1006.86 1007.14 1007.51 1007.99 1008.59 1009.30 1010.10 1010.96 1011.86 1012.76 1013.65 1014.51 1015.34 1016.13 1016.85 1017.50 1018.04 1018.46 1018.75 1018.90 1018.91 1018.81 1018.64 1018.44 1018.26 1018.12
1002.30 1002.81 1003.27 1003.64 1003.92 1004.14 1004.34 1004.56 1004.85 1005.20 1005.62 1006.06 1006.49 1006.86 1007.16 1007.37 1007.54 1007.71 1007.92 1008.23 1008.67 1009.25 1009.97 1010.78 1011.66 1012.55 1013.42 1014.25 1015.03 1015.76 1016.45 1017.10 1017.70 1018.24 1018.70 1019.06 1019.29 1019.38 1019.34 1019.20 1019.01 1018.80 1018.62
1002.33 1002.88 1003.36 1003.72 1003.97 1004.15 1004.32 1004.53 1004.85 1005.27 1005.78 1006.34 1006.88 1007.36 1007.73 1007.99 1008.17 1008.32 1008.50 1008.78 1009.19 1009.77 1010.50 1011.33 1012.21 1013.09 1013.92 1014.67 1015.35 1015.97 1016.54 1017.09 1017.63 1018.16 1018.64 1019.06 1019.38 1019.58 1019.64 1019.59 1019.45 1019.27 1019.09
1002.24 1002.89 1003.43 1003.83 1004.09 1004.25 1004.39 1004.58 1004.88 1005.32 1005.87 1006.49 1007.11 1007.66 1008.09 1008.40 1008.60 1008.75 1008.92 1009.18 1009.59 1010.16 1010.88 1011.71 1012.59 1013.43 1014.21 1014.89 1015.46 1015.96 1016.41 1016.85 1017.32 1017.80 1018.29 1018.76 1019.16 1019.47 1019.65 1019.71 1019.67 1019.57 1019.44
1002.01 1002.79 1003.45 1003.93 1004.24 1004.42 1004.54 1004.70 1004.98 1005.39 1005.94 1006.58 1007.24 1007.84 1008.32 1008.67 1008.90 1009.06 1009.24 1009.49 1009.88 1010.43 1011.13 1011.93 1012.77 1013.58 1014.30 1014.89 1015.38 1015.76 1016.10 1016.44 1016.82 1017.25 1017.72 1018.21 1018.68 1019.08 1019.37 1019.56 1019.64 1019.65 1019.61
1001.65 1002.58 1003.39 1004.00 1004.40 1004.62 1004.76 1004.90 1005.13 1005.51 1006.03 1006.66 1007.33 1007.95 1008.48 1008.87 1009.14 1009.32 1009.50 1009.74 1010.09 1010.60 1011.25 1012.00 1012.79 1013.54 1014.20 1014.73 1015.14 1015.44 1015.69 1015.94 1016.23 1016.59 1017.03 1017.51 1018.00 1018.46 1018.85 1019.16 1019.37 1019.50 1019.58
1001.18 1002.27 1003.25 1004.01 1004.53 1004.83 1004.99 1005.13 1005.33 1005.66 1006.14 1006.74 1007.41 1008.05 1008.61 1009.05 1009.35 1009.56 1009.73 1009.94 1010.25 1010.69 1011.27 1011.95 1012.66 1013.36 1013.97 1014.45 1014.81 1015.06 1015.25 1015.43 1015.65 1015.94 1016.31 1016.76 1017.24 1017.73 1018.18 1018.57 1018.90 1019.16 1019.37
1000.67 1001.90 1003.03 1003.95 1004.59 1004.99 1005.21 1005.35 1005.53 1005.82 1006.26 1006.84 1007.49 1008.15 1008.74 1009.22 1009.56 1009.78 1009.95 1010.13 1010.38 1010.74 1011.23 1011.82 1012.46 1013.09 1013.66 1014.12 1014.46 1014.69 1014.85 1014.99 1015.15 1015.38 1015.68 1016.07 1016.51 1016.99 1017.46 1017.91 1018.32 1018.69 1019.03
1000.16 1001.50 1002.77 1003.82 1004.58 1005.07 1005.35 1005.52 1005.70 1005.97 1006.38 1006.93 1007.57 1008.24 1008.87 1009.38 1009.76 1010.01 1010.18 1010.33 1010.51 1010.79 1011.18 1011.67 1012.23 1012.81 1013.34 1013.80 1014.14 1014.39 1014.55 1014.68 1014.81 1014.98 1015.21 1015.53 1015.91 1016.34 1016.81 1017.28 1017.75 1018.20 1018.64
999.70 1001.10 1002.46 1003.61 1004.48 1005.07 1005.41 1005.63 1005.81 1006.08 1006.47 1007.01 1007.65 1008.34 1009.00 1009.55 1009.97 1010.25 1010.42 1010.54 1010.67 1010.87 1011.17 1011.57 1012.05 1012.57 1013.09 1013.54 1013.92 1014.19 1014.39 1014.52 1014.64 1014.77 1014.95 1015.19 1015.50 1015.88 1016.30 1016.77 1017.26 1017.77 1018.28
999.28 1000.71 1002.11 1003.33 1004.29 1004.95 1005.38 1005.65 1005.87 1006.15 1006.55 1007.08 1007.73 1008.43 1009.12 1009.71 1010.17 1010.48 1010.67 1010.79 1010.88 1011.01 1011.23 1011.56 1011.97 1012.45 1012.94 1013.41 1013.81 1014.13 1014.36 1014.53 1014.65 1014.76 1014.89 1015.08 1015.32 1015.63 1016.01 1016.45 1016.93 1017.46 1018.01
998.90 1000.31 1001.72 1002.98 1004.00 1004.74 1005.25 1005.59 1005.87 1006.19 1006.60 1007.15 1007.81 1008.53 1009.23 1009.87 1010.37 1010.72 1010.93 1011.05 1011.14 1011.24 1011.40 1011.67 1012.03 1012.46 1012.93 1013.40 1013.82 1014.18 1014.45 1014.64 1014.78 1014.89 1015.00 1015.14 1015.33 1015.59 1015.92 1016.32 1016.78 1017.30 1017.86
998.52 999.88 1001.27 1002.55 1003.62 1004.45 1005.04 1005.47 1005.83 1006.20 1006.65 1007.22 1007.88 1008.61 1009.33 1009.99 1010.53 1010.93 1011.18 1011.34 1011.43 1011.53 1011.67 1011.90 1012.21 1012.61 1013.05 1013.51 1013.94 1014.32 1014.62 1014.84 1015.00 1015.12 1015.23 1015.35 1015.51 1015.72 1016.01 1016.37 1016.80 1017.29 1017.82
998.08 999.39 1000.76 1002.05 1003.17 1004.07 1004.77 1005.30 1005.75 1006.19 1006.68 1007.27 1007.94 1008.67 1009.40 1010.08 1010.65 1011.09 1011.40 1011.60 1011.74 1011.86 1012.01 1012.22 1012.51 1012.88 1013.29 1013.72 1014.14 1014.51 1014.82 1015.07 1015.25 1015.39 1015.51 1015.63 1015.78 1015.98 1016.24 1016.57 1016.96 1017.40 1017.88
997.58 998.83 1000.17 1001.47 1002.64 1003.63 1004.43 1005.07 1005.62 1006.14 1006.69 1007.30 1007.98 1008.69 1009.42 1010.10 1010.70 1011.18 1011.55 1011.82 1012.02 1012.19 1012.38 1012.60 1012.88 1013.22 1013.60 1013.99 1014.38 1014.73 1015.04 1015.29 1015.49 1015.65 1015.79 1015.94 1016.10 1016.31 1016.56 1016.85 1017.20 1017.58 1018.00
997.01 998.20 999.51 1000.82 1002.03 1003.11 1004.02 1004.78 1005.43 1006.04 1006.64 1007.27 1007.95 1008.65 1009.36 1010.04 1010.66 1011.18 1011.61 1011.96 1012.23 1012.48 1012.71 1012.97 1013.26 1013.58 1013.92 1014.28 1014.62 1014.95 1015.23 1015.48 1015.69 1015.88 1016.05 1016.23 1016.43 1016.65 1016.89 1017.17 1017.48 1017.80 1018.13
996.40 997.53 998.79 1000.10 1001.35 1002.50 1003.51 1004.39 1005.15 1005.84 1006.50 1007.16 1007.83 1008.53 1009.22 1009.89 1010.51 1011.07 1011.56 1011.98 1012.34 1012.67 1012.97 1013.27 1013.58 1013.89 1014.21 1014.53 1014.83 1015.11 1015.38 1015.61 1015.84 1016.05 1016.26 1016.48 1016.71 1016.95 1017.20 1017.47 1017.73 1017.99 1018.24
995.78 996.83 998.05 999.33 1000.60 1001.80 1002.89 1003.87 1004.72 1005.50 1006.22 1006.91 1007.60 1008.28 1008.96 1009.63 1010.26 1010.85 1011.39 1011.88 1012.32 1012.72 1013.09 1013.44 1013.77 1014.09 1014.39 1014.68 1014.95 1015.20 1015.44 1015.67 1015.90 1016.13 1016.38 1016.63 1016.89 1017.16 1017.42 1017.67 1017.90 1018.10 1018.28
995.20 996.16 997.30 998.53 999.79 1001.01 1002.16 1003.20 1004.14 1004.99 1005.78 1006.52 1007.23 1007.92 1008.60 1009.26 1009.90 1010.52 1011.09 1011.64 1012.14 1012.60 1013.03 1013.42 1013.79 1014.12 1014.42 1014.69 1014.94 1015.17 1015.40 1015.63 1015.86 1016.11 1016.38 1016.66 1016.95 1017.23 1017.50 1017.73 1017.93 1018.08 1018.20
994.72 995.56 996.59 997.73 998.94 1000.14 1001.30 1002.39 1003.39 1004.31 1005.17 1005.96 1006.71 1007.43 1008.13 1008.80 1009.45 1010.08 1010.68 1011.25 1011.79 1012.29 1012.76 1013.19 1013.58 1013.92 1014.23 1014.50 1014.75 1014.98 1015.21 1015.44 1015.69 1015.96 1016.24 1016.54 1016.84 1017.12 1017.38 1017.59 1017.76 1017.88 1017.96
994.38 995.08 995.96 996.98 998.08 999.22 1000.35 1001.45 1002.50 1003.48 1004.40 1005.26 1006.07 1006.83 1007.56 1008.25 1008.91 1009.54 1010.15 1010.72 1011.27 1011.78 1012.27 1012.71 1013.11 1013.47 1013.80 1014.09 1014.36 1014.61 1014.85 1015.10 1015.36 1015.64 1015.94 1016.23 1016.52 1016.80 1017.03 1017.23 1017.37 1017.47 1017.52
994.21 994.74 995.45 996.31 997.28 998.31 999.38 1000.45 1001.51 1002.53 1003.51 1004.44 1005.31 1006.14 1006.90 1007.62 1008.29 1008.91 1009.50 1010.05 1010.58 1011.07 1011.54 1011.98 1012.39 1012.77 1013.12 1013.44 1013.74 1014.03 1014.31 1014.59 1014.87 1015.16 1015.45 1015.73 1016.00 1016.25 1016.46 1016.62 1016.75 1016.83 1016.88
994.25 994.60 995.13 995.80 996.59 997.48 998.45 999.46 1000.50 1001.55 1002.57 1003.56 1004.49 1005.37 1006.18 1006.92 1007.58 1008.19 1008.74 1009.25 1009.73 1010.18 1010.61 1011.03 1011.44 1011.83 1012.21 1012.58 1012.93 1013.27 1013.59 1013.91 1014.21 1014.50 1014.78 1015.04 1015.28 1015.48 1015.65 1015.79 1015.90 1015.98 1016.05
994.51 994.70 995.03 995.50 996.10 996.83 997.66 998.58 999.57 1000.60 1001.64 1002.66 1003.65 1004.57 1005.41 1006.16 1006.81 1007.39 1007.89 1008.34 1008.75 1009.14 1009.53 1009.92 1010.32 1010.73 1011.14 1011.56 1011.97 1012.37 1012.75 1013.10 1013.43 1013.72 1013.98 1014.20 1014.39 1014.54 1014.67 1014.78 1014.87 1014.95 1015.04
995.02 995.05 995.19 995.47 995.87 996.42 997.09 997.89 998.79 999.78 1000.80 1001.83 1002.83 1003.77 1004.62 1005.36 1006.00 1006.53 1006.98 1007.36 1007.70 1008.03 1008.37 1008.73 1009.13 1009.55 1010.01 1010.48 1010.95 1011.41 1011.83 1012.22 1012.56 1012.84 1013.07 1013.25 1013.38 1013.48 1013.56 1013.62 1013.70 1013.78 1013.90
995.76 995.66 995.65 995.74 995.96 996.32 996.82 997.47 998.26 999.16 1000.12 1001.11 1002.09 1003.01 1003.85 1004.57 1005.17 1005.66 1006.05 1006.38 1006.66 1006.94 1007.24 1007.58 1007.97 1008.42 1008.91 1009.42 1009.95 1010.45 1010.92 1011.33 1011.67 1011.93 1012.12 1012.24 1012.31 1012.34 1012.36 1012.39 1012.44 1012.53 1012.66
Thickness
5832 5831 5828 5825 5819 5813 5807 5803 5799 5795 5793 5789 5785 5781 5780 5780 5779 5777 5775 5773 5772 5771 5769 5769 5767 5767 5765 5763 5763 5761 5759 5758 5759 5754 5750 5752 5755 5754 5753 5753 5752 5751 5750
5831 5830 5827 5825 5820 5814 5809 5804 5800 5797 5794 5790 5788 5785 5783 5781 5780 5778 5775 5774 5772 5771 5771 5767 5766 5765 5764 5763 5763 5761 5758 5757 5759 5753 5746 5742 5743 5747 5751 5751 5750 5750 5748
5832 5829 5827 5825 5822 5816 5812 5808 5803 5800 5796 5793 5790 5787 5784 5781 5778 5776 5775 5774 5774 5772 5770 5769 5767 5765 5764 5762 5761 5760 5757 5754 5757 5758 5750 5740 5734 5738 5744 5747 5747 5747 5745
5838 5832 5828 5825 5822 5820 5817 5812 5806 5802 5798 5795 5790 5785 5780 5776 5776 5777 5776 5775 5775 5773 5771 5769 5767 5766 5764 5762 5761 5761 5759 5756 5752 5754 5755 5752 5746 5737 5734 5739 5742 5742 5740
5843 5836 5832 5828 5826 5824 5819 5814 5808 5803 5800 5796 5792 5787 5782 5780 5780 5779 5777 5775 5775 5774 5773 5771 5768 5766 5764 5763 5761 5760 5759 5757 5753 5751 5751 5750 5748 5746 5736 5730 5733 5736 5737
5847 5841 5837 5832 5828 5826 5821 5815 5808 5803 5801 5797 5793 5788 5784 5781 5779 5777 5775 5775 5775 5774 5773 5771 5769 5767 5765 5763 5761 5759 5758 5756 5755 5753 5752 5749 5745 5741 5738 5731 5730 5729 5731
5849 5842 5836 5830 5827 5824 5821 5816 5809 5803 5801 5797 5794 5791 5787 5784 5780 5778 5777 5776 5774 5773 5772 5772 5769 5766 5765 5763 5762 5759 5757 5756 5754 5752 5751 5750 5748 5747 5741 5734 5730 5727 5727
5850 5844 5838 5833 5828 5825 5821 5817 5810 5804 5801 5798 5795 5793 5790 5786 5783 5781 5779 5777 5775 5774 5774 5771 5769 5767 5765 5763 5761 5759 5757 5755 5753 5752 5750 5748 5747 5746 5742 5737 5730 5723 5721
5850 5845 5841 5836 5831 5826 5822 5818 5811 5805 5802 5799 5796 5792 5790 5787 5785 5783 5780 5778 5776 5775 5773 5771 5768 5766 5764 5762 5759 5756 5755 5753 5751 5749 5748 5745 5745 5744 5742 5739 5734 5725 5716
5850 5847 5843 5838 5833 5829 5824 5820 5814 5808 5804 5800 5796 5793 5790 5787 5785 5782 5779 5777 5775 5774 5772 5769 5767 5765 5762 5760 5757 5755 5753 5750 5748 5747 5744 5742 5741 5741 5739 5736 5734 5730 5722
5849 5847 5843 5840 5835 5830 5825 5820 5814 5809 5805 5801 5798 5794 5790 5788 5784 5781 5779 5776 5774 5772 5770 5768 5765 5762 5760 5758 5755 5753 5751 5748 5746 5744 5742 5739 5738 5735 5735 5733 5731 5728 5723
5848 5846 5842 5838 5833 5829 5824 5819 5815 5810 5806 5803 5798 5794 5790 5787 5783 5780 5778 5776 5773 5771 5768 5766 5763 5760 5758 5756 5754 5751 5748 5746 5743 5741 5738 5736 5735 5732 5730 5728 5726 5723 5720
5843 5842 5838 5834 5830 5826 5823 5820 5815 5811 5808 5804 5798 5793 5789 5785 5782 5779 5776 5774 5771 5769 5766 5763 5760 5758 5756 5754 5752 5749 5747 5744 5741 5739 5736 5734 5731 5728 5726 5724 5722 5720 5718
5836 5834 5831 5829 5826 5823 5820 5818 5815 5812 5808 5803 5797 5791 5788 5785 5781 5778 5775 5772 5769 5766 5763 5761 5758 5756 5753 5751 5749 5747 5744 5741 5739 5737 5734 5731 5728 5725 5722 5720 5718 5716 5713
5829 5826 5824 5823 5821 5819 5816 5814 5813 5810 5807 5801 5795 5790 5787 5784 5780 5775 5772 5770 5767 5764 5761 5758 5755 5753 5750 5747 5744 5743 5741 5737 5735 5733 5731 5729 5726 5723 5720 5718 5714 5712 5708
5822 5821 5820 5818 5816 5815 5813 5811 5809 5807 5803 5797 5792 5789 5785 5780 5776 5773 5770 5766 5763 5760 5757 5754 5751 5748 5746 5742 5740 5738 5736 5734 5731 5728 5727 5725 5722 5719 5716 5713 5710 5707 5703
5817 5816 5815 5813 5812 5811 5810 5807 5805 5803 5798 5793 5789 5785 5781 5776 5773 5770 5766 5762 5759 5756 5752 5750 5747 5743 5740 5738 5735 5733 5731 5729 5727 5725 5722 5721 5719 5715 5712 5708 5705 5702 5699
5812 5811 5810 5809 5810 5809 5807 5805 5803 5798 5794 5789 5785 5782 5778 5773 5770 5766 5762 5759 5756 5752 5748 5745 5742 5739 5735 5733 5730 5728 5727 5725 5723 5721 5719 5715 5712 5710 5706 5704 5700 5696 5693
5809 5808 5808 5807 5805 5804 5802 5799 5796 5792 5788 5784 5781 5778 5775 5770 5766 5761 5758 5755 5751 5748 5744 5741 5738 5734 5730 5728 5726 5723 5724 5721 5719 5718 5715 5712 5708 5705 5701 5698 5694 5690 5686
5803 5802 5802 5799 5797 5797 5795 5791 5788 5784 5781 5780 5777 5774 5771 5766 5762 5758 5755 5752 5748 5744 5741 5738 5735 5732 5727 5723 5721 5718 5719 5716 5714 5712 5710 5707 5704 5700 5696 5693 5689 5684 5680
5794 5794 5793 5790 5789 5790 5787 5782 5780 5777 5777 5776 5773 5770 5766 5762 5758 5754 5751 5747 5743 5740 5736 5734 5731 5728 5724 5719 5717 5714 5713 5711 5708 5706 5703 5701 5697 5694 5690 5687 5684 5679 5676
5784 5785 5782 5780 5782 5782 5779 5774 5772 5774 5773 5771 5767 5763 5760 5757 5754 5749 5745 5741 5737 5733 5730 5728 5725 5723 5720 5716 5712 5709 5706 5705 5702 5700 5697 5694 5690 5687 5684 5681 5678 5675 5671
5774 5775 5773 5770 5771 5773 5772 5767 5766 5767 5765 5762 5759 5756 5753 5751 5747 5743 5739 5735 5732 5729 5726 5723 5720 5717 5715 5711 5707 5703 5701 5698 5696 5694 5690 5687 5684 5681 5678 5675 5672 5669 5666
5764 5766 5765 5761 5761 5763 5763 5762 5761 5760 5758 5754 5751 5749 5746 5743 5740 5737 5735 5731 5728 5725 5722 5719 5715 5712 5710 5706 5702 5698 5694 5691 5688 5686 5683 5680 5677 5674 5672 5669 5666 5664 5662
5755 5756 5754 5753 5754 5755 5754 5755 5754 5753 5749 5746 5744 5743 5741 5738 5734 5731 5727 5726 5722 5720 5717 5714 5712 5707 5703 5700 5696 5692 5690 5687 5683 5679 5677 5674 5671 5668 5666 5664 5662 5660 5657
5746 5745 5745 5746 5747 5747 5746 5746 5746 5745 5742 5739 5737 5737 5735 5732 5728 5724 5720 5716 5715 5712 5710 5708 5706 5703 5699 5694 5690 5687 5684 5680 5676 5673 5671 5669 5667 5664 5662 5659 5656 5653 5651